Flag for United Kingdom Weather past 2 weeks in Eastbourne, England, United Kingdom

Now
54 °F

Passing clouds.


Feels Like: 47 °F
Forecast: N/A
Wind: 25 mph from Southwest

Location: Shoreham Airport

Current Time: Dec 18, 2014 at 9:03:32 PM

Latest Report: Dec 18, 2014 at 7:50 PM


Visibility: N/A

Pressure: 29.92 "Hg

Humidity: 88%

Dew point: 50 °F

Location of EastbourneLocation

Historic Weather in Eastbourne — Graph

°F

Eastbourne temperature yesterday

Maximum temperature yesterday: 55 °F (at 11:50 AM)
Minimum temperature yesterday: 52 °F (at 7:50 AM)
Average temperature yesterday: 53 °F

Past Weeks' High & Low Weather Summary

 TemperatureHumidityPressure
High55 °F (Dec 17, 11:50 AM)100% (Dec 15, 6:20 PM)30.42 "Hg (Dec 15, 6:20 PM)
Low28 °F (Dec 6, 6:50 PM)58% (Dec 7, 1:50 PM)29.33 "Hg (Dec 12, 7:50 AM)
Average44 °F83%29.98 "Hg
* Reported Dec 3 7:20 PM — Dec 18 7:50 PM, Eastbourne, Weather by CustomWeather, © 2014

Note: Actual official high and low records may vary slightly from our data, if they occured in-between our weather recording intervals... More about our weather records

Advertising

Eastbourne weather history for previous 24 hours

 ConditionsComfort  
Time TempWeatherWind HumidityBarometerVisibility
7:50 PM
Dec 18
54 °FPassing clouds.25 mph88%29.92 "HgN/A
7:20 PM54 °FPassing clouds.29 mph88%29.92 "HgN/A
6:50 PM54 °FPassing clouds.26 mph88%29.92 "HgN/A
6:20 PM54 °FPassing clouds.26 mph88%29.92 "HgN/A
5:50 PM54 °FPassing clouds.29 mph88%29.92 "Hg4 mi
5:20 PM54 °FPassing clouds.21 mph94%29.92 "Hg3 mi
4:50 PM54 °FDrizzle. Fog.23 mph94%29.92 "Hg2 mi
4:20 PM54 °FDrizzle. Fog.21 mph94%29.92 "Hg1 mi
3:50 PM54 °FDrizzle. Broken clouds.24 mph94%29.92 "Hg2 mi
3:20 PM54 °FPartly sunny.21 mph94%29.92 "Hg3 mi
2:50 PM54 °FSleet. Partly sunny.23 mph94%29.92 "Hg6 mi
2:20 PM54 °FPartly sunny.23 mph94%29.92 "Hg2 mi
1:50 PM54 °FPartly sunny.24 mph94%29.89 "Hg3 mi
1:20 PM54 °FPartly sunny.25 mph88%29.89 "Hg5 mi
12:50 PM54 °FPartly sunny.25 mph94%29.89 "Hg4 mi
12:20 PM54 °FPartly sunny.24 mph94%29.92 "Hg5 mi
11:50 AM54 °FSleet. Partly sunny.23 mph88%29.92 "HgN/A
11:20 AM54 °FDrizzle. Low clouds.25 mph94%29.92 "Hg3 mi
10:20 AM54 °FSleet. Partly sunny.24 mph94%29.92 "Hg6 mi
9:50 AM54 °FSleet. Low clouds.20 mph94%29.92 "Hg6 mi
9:20 AM54 °FSleet. Partly sunny.23 mph94%29.92 "Hg6 mi
8:20 AM54 °FSleet. Low clouds.16 mph94%29.89 "HgN/A
7:50 AM54 °FPassing clouds.12 mph94%29.89 "Hg4 mi
Weather by CustomWeather, © 2014

See weather overviewHow to use our weather pages